[[{"header":{"parameterUnit":"m.s-1","parameterCategory":1,"la1":30.2991,"la2":30.254,"lo1":-89.0895,"lo2":-89.0444,"dy":0.0017,"dx":0.0017,"nx":28,"ny":28,"refTime":"2024-03-15T03:00:00:Z","depth":0,"parameterNumber":2,"parameterNumberName":"U-component_of_WINDS"},"data":[0,0,0,0,0,0,0,0,0,0,0,0,0,0,0,0,0,0,0,0,0,0,0,0,0,0,0,0,0,0,0,0,0,0,0,0,0,0,0,0,0,0,0,0,0,0,0,0,0,0,0,0,0,0,0,0,0,0,-1.1107,-1.1107,0,-1.1089,-1.1089,-1.1089,-1.1041,-1.104,-1.1039,-1.1038,-1.1022,-1.1022,-1.1023,0,0,0,0,0,0,0,0,0,0,0,0,0,-1.1101,-1.1101,-1.1107,-1.1107,-1.1107,-1.1089,-1.1089,-1.1089,-1.1042,-1.104,-1.1039,-1.1038,-1.1022,-1.1022,-1.1023,0,0,0,0,0,0,0,0,0,0,0,0,0,-1.1096,-1.1102,-1.1107,-1.1081,-1.1078,-1.1089,-1.1089,-1.1089,-1.1042,-1.104,-1.1039,-1.1037,-1.1021,-1.1022,-1.1023,-1.1058,0,0,-1.1025,-1.1025,0,0,0,0,0,0,0,0,-1.1096,-1.1096,-1.1085,-1.1083,-1.108,-1.1066,-1.1081,-1.1079,-1.1042,-1.1056,-1.1038,-1.1037,-1.1038,-1.1037,-1.1037,-1.1057,-1.1057,-1.1025,-1.1026,-1.1026,-1.1026,0,0,0,0,0,0,0,-1.1096,-1.1096,-1.11,-1.1085,-1.1082,-1.107,-1.1068,-1.108,-1.1056,-1.1055,-1.1051,-1.105,-1.1036,-1.1037,-1.1036,-1.1056,-1.1025,-1.1026,-1.1026,-1.1027,-1.1104,-1.1106,0,0,0,0,0,0,-1.11,-1.1097,-1.1101,-1.11,-1.1084,-1.1072,-1.1069,-1.1072,-1.1055,-1.1051,-1.1051,-1.1047,-1.1036,-1.1036,-1.1036,-1.1076,-1.1026,-1.1027,-1.1027,-1.1103,-1.1105,-1.1106,0,0,0,0,0,0,-1.11,-1.1101,-1.1101,-1.1097,-1.1096,-1.1074,-1.1077,-1.1073,-1.1073,-1.1053,-1.1048,-1.1056,-1.1035,-1.1035,-1.1053,-1.1074,-1.1027,-1.1028,-1.1101,-1.1103,-1.1106,-1.1156,0,0,0,0,0,0,-1.11,-1.1101,-1.1114,-1.1098,-1.1097,-1.1119,-1.1079,-1.1073,-1.1074,-1.1069,-1.1056,-1.1052,-1.1034,-1.1052,-1.1054,-1.1075,-1.1028,-1.1099,-1.1102,-1.1105,-1.1152,-1.116,-1.1166,0,0,0,0,0,-1.11,-1.113,-1.1115,-1.1116,-1.1113,-1.112,-1.1119,-1.1097,-1.1076,-1.1089,-1.1076,-1.1053,-1.1072,-1.1054,-1.1056,-1.1077,-1.1097,-1.1101,-1.1105,-1.1149,-1.1158,-1.1166,0,0,0,0,0,0,-1.115,-1.1127,-1.1111,-1.1136,-1.113,-1.1112,-1.1128,-1.1107,-1.1108,-1.1104,-1.1076,-1.1073,-1.1095,-1.1088,-1.1069,-1.111,-1.1081,-1.1085,-1.1114,-1.1123,-1.113,-1.1131,-1.1029,0,0,0,0,0,-1.1164,-1.1171,-1.1151,-1.1175,-1.1173,-1.1151,-1.1153,-1.1136,-1.113,-1.1127,-1.1115,-1.111,-1.1115,-1.1118,-1.1122,-1.1151,-1.1147,-1.1167,-1.1174,-1.118,-1.1183,-1.1198,-1.1206,-1.1118,-1.1118,-1.1118,0,0,-1.1192,-1.1181,-1.1187,-1.1185,-1.1178,-1.1187,-1.1149,-1.116,-1.1166,-1.1129,-1.1145,-1.1136,-1.1128,-1.1152,-1.1162,-1.1147,-1.1207,-1.1184,-1.1189,-1.119,-1.1203,-1.1211,-1.1218,-1.1121,-1.112,-1.112,0,0,-1.1249,-1.1241,-1.126,-1.1254,-1.1245,-1.123,-1.1234,-1.1219,-1.1212,-1.1227,-1.1199,-1.1207,-1.1215,-1.1211,-1.121,-1.1264,-1.1243,-1.1266,-1.1302,-1.1317,-1.1324,-1.133,-1.1349,-1.1356,-1.127,-1.127,-1.127,0,-1.1286,-1.1297,-1.1272,-1.1285,-1.1284,-1.125,-1.1269,-1.1265,-1.1257,-1.1258,-1.1241,-1.1251,-1.1243,-1.1265,-1.1279,-1.1279,-1.1283,-1.1267,-1.1325,-1.1331,-1.1336,-1.1354,-1.1361,-1.1273,-1.1273,-1.1272,-1.1272,0,-1.1343,-1.1351,-1.1368,-1.1361,-1.1362,-1.1378,-1.1355,-1.136,-1.1343,-1.133,-1.1346,-1.1336,-1.1336,-1.134,-1.1324,-1.136,-1.1351,-1.133,-1.13,-1.1348,-1.1364,-1.1371,-1.1277,-1.1276,-1.1275,-1.1274,0,0,-1.143,-1.1409,-1.1415,-1.1411,-1.1398,-1.1404,-1.1419,-1.1418,-1.1423,-1.1419,-1.143,-1.1438,-1.1418,-1.1417,-1.14,-1.1413,-1.1456,-1.139,-1.1389,-1.1402,-1.1495,-1.1511,-1.1519,-1.1442,-1.1443,-1.1444,-1.1495,0,-1.1483,-1.1506,-1.1483,-1.151,-1.1518,-1.1485,-1.1498,-1.1491,-1.148,-1.1484,-1.1472,-1.1477,-1.1451,-1.145,-1.1462,-1.1449,-1.1474,-1.1445,-1.1452,-1.1453,-1.1455,-1.1528,-1.1544,-1.1593,-1.1502,-1.1503,-1.1504,0,-1.1548,-1.1546,-1.1574,-1.1559,-1.1561,-1.1572,-1.157,-1.1575,-1.1567,-1.1558,-1.1556,-1.1535,-1.1548,-1.1519,-1.1536,-1.1517,-1.1518,-1.1512,-1.1514,-1.1513,-1.1481,-1.1529,-1.1608,-1.1616,-1.1514,-1.1513,-1.1512,0,-1.1609,-1.1613,-1.163,-1.1628,-1.1611,-1.1619,-1.1613,-1.1603,-1.1604,-1.1603,-1.1603,-1.1603,-1.1603,-1.1604,-1.1584,-1.1564,-1.1604,-1.1573,-1.1596,-1.1597,-1.1606,-1.1605,-1.1686,-1.1608,-1.1607,-1.1607,-1.1607,0,-1.167,-1.1688,-1.1657,-1.1667,-1.1687,-1.1661,-1.1681,-1.1671,-1.1663,-1.1671,-1.1643,-1.1652,-1.1624,-1.163,-1.1614,-1.1631,-1.1631,-1.1624,-1.1619,-1.1626,-1.1627,-1.1627,-1.1623,-1.1609,-1.1609,-1.1608,-1.1608,0,-1.1741,-1.1721,-1.1737,-1.1719,-1.1715,-1.173,-1.1715,-1.1724,-1.171,-1.1721,-1.1722,-1.1701,-1.1705,-1.1685,-1.1687,-1.1676,-1.1701,-1.1691,-1.1704,-1.17,-1.1725,-1.1723,-1.1808,-1.1818,-1.1734,-1.1734,-1.1735,0,-1.1781,-1.1794,-1.1777,-1.178,-1.1775,-1.1781,-1.1781,-1.1757,-1.1759,-1.1751,-1.1761,-1.1763,-1.1764,-1.1773,-1.1758,-1.1759,-1.1749,-1.1779,-1.1749,-1.1755,-1.1749,-1.1748,-1.1749,-1.1785,-1.1786,-1.1787,-1.1787,0,-1.1854,-1.1844,-1.1846,-1.1844,-1.1846,-1.1844,-1.184,-1.1844,-1.1817,-1.1821,-1.1826,-1.1826,-1.1827,-1.183,-1.1828,-1.1821,-1.18,-1.1797,-1.1802,-1.1809,-1.1816,-1.1812,-1.172,-1.1795,-1.1794,-1.1794,-1.1793,-1.1793,-1.1911,-1.1921,-1.191,-1.1914,-1.1908,-1.1905,-1.1912,-1.1899,-1.1902,-1.1901,-1.1886,-1.1893,-1.1885,-1.188,-1.1875,-1.188,-1.1866,-1.1874,-1.1876,-1.1879,-1.1883,-1.1815,-1.188,-1.188,-1.188,-1.1879,-1.1879,0,-1.1983,-1.1974,-1.1977,-1.1972,-1.1975,-1.1954,-1.1948,-1.1952,-1.1959,-1.1952,-1.1953,-1.1958,-1.1961,-1.1946,-1.1946,-1.1953,-1.1943,-1.1954,-1.1953,-1.1952,-1.1895,-1.189,-1.1962,-1.1962,-1.1962,-1.1962,-1.1962,-1.1962,-1.202,-1.2036,-1.2024,-1.2036,-1.2028,-1.2034,-1.2033,-1.203,-1.2024,-1.2031,-1.2033,-1.2023,-1.2013,-1.2012,-1.2014,-1.2009,-1.201,-1.2024,-1.2017,-1.1964,-1.1956,-1.1948,-1.1943,-1.2025,-1.2025,-1.2073,-1.2073,-1.2073]},{"header":{"parameterUnit":"m.s-1","parameterCategory":1,"la1":30.2991,"la2":30.254,"lo1":-89.0895,"lo2":-89.0444,"dy":0.0017,"dx":0.0017,"nx":28,"ny":28,"refTime":"2024-03-15T03:00:00:Z","depth":0,"parameterNumber":3,"parameterNumberName":"V-component_of_WINDS"},"data":[0,0,0,0,0,0,0,0,0,0,0,0,0,0,0,0,0,0,0,0,0,0,0,0,0,0,0,0,0,0,0,0,0,0,0,0,0,0,0,0,0,0,0,0,0,0,0,0,0,0,0,0,0,0,0,0,0,0,0.8208,0.8208,0,0.8216,0.8216,0.8217,0.8219,0.8219,0.8219,0.8219,0.8228,0.8228,0.8228,0,0,0,0,0,0,0,0,0,0,0,0,0,0.8195,0.8196,0.8208,0.8208,0.8208,0.8216,0.8216,0.8217,0.8219,0.8219,0.8219,0.8219,0.8228,0.8228,0.8228,0,0,0,0,0,0,0,0,0,0,0,0,0,0.8202,0.8196,0.8208,0.8211,0.8211,0.8216,0.8216,0.8217,0.8219,0.8219,0.8219,0.8219,0.8227,0.8228,0.8228,0.8231,0,0,0.8229,0.8229,0,0,0,0,0,0,0,0,0.8202,0.8202,0.821,0.821,0.8211,0.8217,0.8215,0.8222,0.8219,0.8216,0.8219,0.8219,0.8224,0.8225,0.8226,0.8232,0.8232,0.8229,0.823,0.823,0.823,0,0,0,0,0,0,0,0.8201,0.8202,0.8211,0.821,0.8211,0.8212,0.8213,0.8216,0.822,0.8216,0.8217,0.8218,0.8224,0.8226,0.8227,0.8232,0.8229,0.823,0.823,0.823,0.8242,0.8242,0,0,0,0,0,0,0.82,0.8202,0.8211,0.8212,0.8206,0.8212,0.8213,0.8215,0.822,0.8221,0.8218,0.8218,0.8225,0.8226,0.8227,0.8232,0.823,0.823,0.823,0.8242,0.8242,0.8242,0,0,0,0,0,0,0.82,0.8201,0.8211,0.8207,0.8208,0.8212,0.8214,0.8215,0.8217,0.8221,0.8222,0.8219,0.8225,0.8226,0.823,0.8232,0.823,0.8231,0.8242,0.8242,0.8242,0.8241,0,0,0,0,0,0,0.82,0.8201,0.8202,0.8207,0.8208,0.8214,0.8215,0.8215,0.8218,0.8218,0.8222,0.8223,0.8225,0.823,0.8231,0.8232,0.8231,0.8242,0.8242,0.8242,0.8241,0.8241,0.8241,0,0,0,0,0,0.8199,0.8201,0.8202,0.8203,0.821,0.8214,0.8215,0.8218,0.8218,0.8219,0.8222,0.8223,0.8232,0.823,0.8231,0.8233,0.8241,0.8242,0.8242,0.8241,0.8241,0.8241,0,0,0,0,0,0,0.8196,0.8202,0.8203,0.8206,0.821,0.8215,0.8216,0.8218,0.8221,0.8221,0.8224,0.8225,0.8229,0.8232,0.823,0.8237,0.8237,0.8237,0.8235,0.8236,0.8236,0.8235,0.8231,0,0,0,0,0,0.8196,0.8199,0.8204,0.8206,0.8208,0.8212,0.8214,0.8216,0.8219,0.8221,0.8224,0.8228,0.8231,0.8234,0.8237,0.8241,0.8243,0.8243,0.8243,0.8243,0.8243,0.8247,0.8247,0.8243,0.8243,0.8243,0,0,0.8195,0.8199,0.82,0.8206,0.8209,0.8212,0.8213,0.8216,0.8219,0.8221,0.8226,0.8228,0.8232,0.8237,0.8239,0.8239,0.8245,0.8243,0.8243,0.8244,0.8247,0.8247,0.8248,0.8243,0.8243,0.8243,0,0,0.8196,0.8199,0.8202,0.8205,0.8209,0.8212,0.8213,0.8218,0.8219,0.8224,0.8226,0.8229,0.8235,0.8239,0.8241,0.8244,0.8245,0.8245,0.8246,0.8249,0.8249,0.8249,0.8251,0.8252,0.8246,0.8246,0.8246,0,0.8195,0.82,0.8203,0.8206,0.8209,0.8212,0.8215,0.8218,0.8223,0.8225,0.8225,0.8233,0.8236,0.8242,0.8243,0.8244,0.8246,0.8245,0.8249,0.8249,0.825,0.8251,0.8252,0.8245,0.8245,0.8245,0.8245,0,0.8198,0.8202,0.8204,0.8209,0.8212,0.8215,0.8219,0.8222,0.8224,0.8227,0.8232,0.8236,0.824,0.8242,0.8243,0.8248,0.8248,0.8248,0.8248,0.825,0.8251,0.8252,0.8245,0.8245,0.8245,0.8245,0,0,0.8196,0.8204,0.8205,0.8208,0.8214,0.8217,0.822,0.8225,0.8228,0.8232,0.8235,0.8241,0.8242,0.8244,0.8247,0.8249,0.8252,0.825,0.825,0.825,0.8258,0.8258,0.8258,0.8253,0.8254,0.8254,0.8258,0,0.8198,0.8205,0.8208,0.8214,0.8218,0.8221,0.8224,0.8228,0.8231,0.8235,0.8239,0.8243,0.8243,0.8245,0.8248,0.8251,0.8254,0.8251,0.8257,0.8257,0.8256,0.8259,0.8259,0.8262,0.8258,0.8259,0.8259,0,0.8201,0.8205,0.8211,0.8217,0.8219,0.8222,0.8227,0.8231,0.8236,0.8238,0.8241,0.8244,0.8248,0.8248,0.8255,0.8253,0.8255,0.8258,0.8258,0.8259,0.8258,0.826,0.8264,0.8264,0.826,0.8259,0.8259,0,0.8199,0.8207,0.8211,0.8214,0.8221,0.8223,0.8226,0.8231,0.8234,0.8239,0.8241,0.8246,0.8249,0.8253,0.8257,0.8256,0.8264,0.8263,0.8266,0.8266,0.8267,0.8267,0.8271,0.8269,0.8269,0.8269,0.8268,0,0.8201,0.8204,0.8211,0.8214,0.8218,0.8223,0.8227,0.823,0.8235,0.8239,0.8242,0.8245,0.825,0.8255,0.8258,0.8263,0.8265,0.8267,0.8268,0.8266,0.8266,0.8268,0.8268,0.8269,0.8269,0.8269,0.8269,0,0.82,0.8204,0.821,0.8216,0.8218,0.8221,0.8227,0.823,0.8234,0.8239,0.824,0.8246,0.8251,0.8256,0.8263,0.8265,0.8271,0.8272,0.8269,0.827,0.8272,0.8272,0.8278,0.8279,0.8275,0.8275,0.8275,0,0.82,0.8203,0.8211,0.8214,0.8217,0.8221,0.8225,0.8229,0.8233,0.8239,0.8242,0.8248,0.8253,0.8261,0.8266,0.8272,0.8273,0.8275,0.8274,0.8273,0.8273,0.8273,0.8274,0.8275,0.8275,0.8275,0.8275,0,0.8201,0.8204,0.8208,0.8214,0.8218,0.8223,0.8228,0.823,0.8236,0.8239,0.8245,0.8249,0.8257,0.8263,0.8269,0.8272,0.8275,0.8275,0.8276,0.8275,0.8274,0.8275,0.827,0.8275,0.8275,0.8275,0.8275,0.8275,0.8201,0.8204,0.821,0.8216,0.822,0.8225,0.8228,0.8233,0.8237,0.8244,0.8247,0.8253,0.8259,0.8268,0.8271,0.8276,0.8277,0.8278,0.8278,0.8278,0.8279,0.8273,0.8278,0.8278,0.8278,0.8278,0.8278,0,0.8203,0.8207,0.8212,0.8219,0.8223,0.8225,0.8231,0.8235,0.824,0.8245,0.825,0.8257,0.8264,0.8269,0.8276,0.8279,0.828,0.828,0.828,0.8281,0.8278,0.8276,0.8279,0.8279,0.8279,0.8279,0.8279,0.8279,0.8204,0.8209,0.8213,0.8221,0.8225,0.8231,0.8234,0.8239,0.8243,0.8251,0.8256,0.826,0.8266,0.8273,0.8279,0.828,0.8283,0.8283,0.8285,0.8281,0.8281,0.8281,0.828,0.8283,0.8283,0.8287,0.8287,0.8287]}]]